contact:dominique.lefevre@mio.osupytheas.fr, maurice.libes@osupytheas.fr, didier.mallarino@osupytheas.fr
Project:EMSO http://www.emso-fr.org/EMSO-France
Depth: 2436.0 m
Title:EMSO Ligure Ouest : Data MII capteur AQUADOPP
Date,Latitude,Longitude,X_East,Y_North,Z_Up,Amplitude_X,Amplitude_Y,Amplitude_Z,Batterie,SoundSpeed,Heading,Pitch,Roll,Pressure,TIS,Speed,Direction
, degrees North, degrees East, m.s-1, m.s-1,m.s-1, 1, 1, 1, Volt, m.s-1, degree, degree, degree, dbar, degree_C, m.s-1, degree
2020-03-05T00:04:02,42.805,6.029,0.029,-0.018,-0.028,102.0,104.0,100.0,13.3,1505.2,324.5,-0.7,1.8,2470.253,13.3,0.034,121.8
2020-03-05T00:07:02,42.805,6.029,0.037,-0.009,-0.04,102.0,105.0,101.0,13.3,1505.3,324.8,-0.7,1.8,2470.253,13.31,0.038,103.7
2020-03-05T00:10:03,42.805,6.029,0.052,-0.027,-0.025,101.0,104.0,102.0,13.3,1505.3,326.4,-0.7,1.8,2470.254,13.32,0.058,117.4
2020-03-05T00:13:03,42.805,6.029,0.049,-0.026,-0.021,101.0,105.0,100.0,13.4,1505.3,326.3,-0.7,1.9,2470.26,13.32,0.055,117.9
2020-03-05T00:16:03,42.805,6.029,0.037,-0.012,-0.007,102.0,105.0,100.0,13.4,1505.3,323.4,-0.7,1.8,2470.249,13.32,0.038,108.0
2020-03-05T00:19:03,42.805,6.029,0.013,-0.02,-0.022,104.0,106.0,101.0,13.4,1505.3,328.7,-0.7,1.8,2470.235,13.32,0.023,147.0
2020-03-05T00:22:02,42.805,6.029,0.045,-0.006,-0.016,101.0,106.0,101.0,13.4,1505.3,324.2,-0.7,1.8,2470.26,13.32,0.045,97.6
2020-03-05T00:25:03,42.805,6.029,0.036,-0.003,-0.038,104.0,104.0,101.0,13.3,1505.3,322.8,-0.7,1.8,2470.223,13.32,0.036,94.8
2020-03-05T00:28:03,42.805,6.029,0.041,-0.016,0.001,104.0,104.0,100.0,13.4,1505.3,325.3,-0.7,1.9,2470.217,13.32,0.044,111.3
2020-03-05T00:31:03,42.805,6.029,0.025,-0.019,-0.039,103.0,104.0,101.0,13.4,1505.3,325.6,-0.7,1.8,2470.195,13.32,0.031,127.2
2020-03-05T00:34:03,42.805,6.029,0.024,-0.029,-0.034,104.0,104.0,99.0,13.3,1505.3,327.5,-0.7,1.8,2470.26,13.32,0.037,140.4
2020-03-05T00:37:02,42.805,6.029,0.037,-0.019,-0.019,104.0,104.0,99.0,13.3,1505.3,326.7,-0.7,1.8,2470.27,13.32,0.041,117.2
2020-03-05T00:40:02,42.805,6.029,0.059,-0.015,0.003,104.0,105.0,101.0,13.3,1505.3,324.7,-0.7,1.8,2470.258,13.32,0.06,104.3
2020-03-05T00:43:03,42.805,6.029,0.031,-0.018,-0.036,104.0,105.0,101.0,13.4,1505.3,326.8,-0.7,1.8,2470.25,13.32,0.035,120.1
2020-03-05T00:46:03,42.805,6.029,0.035,-0.053,-0.045,102.0,105.0,102.0,13.3,1505.3,326.8,-0.7,1.8,2470.23,13.32,0.063,146.6
2020-03-05T00:49:02,42.805,6.029,0.055,-0.025,-0.031,103.0,105.0,100.0,13.4,1505.3,323.9,-0.7,1.8,2470.266,13.32,0.06,114.4
2020-03-05T00:52:02,42.805,6.029,0.047,-0.04,-0.001,104.0,105.0,101.0,13.3,1505.3,325.0,-0.7,1.8,2470.229,13.32,0.061,130.4
2020-03-05T00:55:02,42.805,6.029,0.058,-0.025,-0.005,102.0,104.0,100.0,13.3,1505.3,323.7,-0.7,1.8,2470.212,13.32,0.063,113.3
2020-03-05T00:58:03,42.805,6.029,0.032,-0.042,-0.033,103.0,104.0,100.0,13.4,1505.3,327.8,-0.7,1.8,2470.207,13.32,0.052,142.7
2020-03-05T01:04:02,42.805,6.029,0.022,-0.012,-0.025,105.0,106.0,101.0,13.4,1505.2,325.5,-0.8,1.8,2470.305,13.3,0.025,118.6
2020-03-05T01:07:03,42.805,6.029,0.045,-0.018,0.006,102.0,105.0,101.0,13.3,1505.3,326.7,-0.7,1.8,2470.258,13.31,0.048,111.8
2020-03-05T01:10:03,42.805,6.029,0.003,-0.021,-0.049,105.0,106.0,101.0,13.4,1505.3,325.0,-0.7,1.8,2470.258,13.31,0.021,171.9
2020-03-05T01:13:03,42.805,6.029,0.038,-0.039,-0.017,105.0,105.0,101.0,13.4,1505.3,327.1,-0.7,1.8,2470.231,13.32,0.054,135.7
2020-03-05T01:16:03,42.805,6.029,0.02,-0.015,-0.056,104.0,105.0,102.0,13.4,1505.3,325.7,-0.7,1.8,2470.276,13.32,0.025,126.9
2020-03-05T01:19:02,42.805,6.029,0.034,-0.021,-0.015,104.0,106.0,101.0,13.4,1505.3,324.1,-0.7,1.8,2470.287,13.32,0.039,121.7
2020-03-05T01:22:02,42.805,6.029,0.008,-0.015,-0.024,104.0,105.0,101.0,13.4,1505.3,325.4,-0.7,1.9,2470.305,13.32,0.017,151.9
2020-03-05T01:25:03,42.805,6.029,0.045,-0.025,-0.036,104.0,106.0,101.0,13.4,1505.3,324.5,-0.7,1.8,2470.28,13.32,0.051,119.1
2020-03-05T01:28:03,42.805,6.029,0.025,-0.028,-0.031,105.0,105.0,102.0,13.4,1505.3,325.9,-0.7,1.8,2470.253,13.32,0.037,138.2
2020-03-05T01:31:02,42.805,6.029,0.021,-0.036,-0.056,105.0,105.0,102.0,13.3,1505.3,325.8,-0.7,1.8,2470.286,13.32,0.041,149.7
2020-03-05T01:34:03,42.805,6.029,0.032,-0.042,-0.023,105.0,107.0,101.0,13.4,1505.3,327.0,-0.7,1.8,2470.248,13.32,0.052,142.7
2020-03-05T01:37:02,42.805,6.029,0.039,-0.03,-0.014,106.0,107.0,101.0,13.3,1505.3,325.5,-0.7,1.8,2470.292,13.32,0.049,127.6
2020-03-05T01:40:03,42.805,6.029,0.035,-0.024,0.005,103.0,105.0,101.0,13.3,1505.3,324.4,-0.7,1.8,2470.255,13.32,0.042,124.4
2020-03-05T01:43:03,42.805,6.029,0.047,-0.048,-0.037,105.0,105.0,101.0,13.3,1505.3,323.7,-0.7,1.8,2470.285,13.32,0.067,135.6
2020-03-05T01:46:03,42.805,6.029,0.019,-0.022,-0.061,105.0,105.0,100.0,13.4,1505.3,325.3,-0.7,1.8,2470.291,13.32,0.029,139.2
2020-03-05T01:49:03,42.805,6.029,0.032,-0.049,-0.017,104.0,106.0,101.0,13.4,1505.3,325.9,-0.7,1.8,2470.281,13.32,0.058,146.8
2020-03-05T01:52:02,42.805,6.029,0.038,-0.018,-0.023,104.0,106.0,102.0,13.4,1505.3,328.1,-0.7,1.8,2470.298,13.32,0.042,115.3
2020-03-05T01:55:03,42.805,6.029,-0.029,-0.034,-0.034,105.0,106.0,101.0,13.4,1505.3,326.4,-0.7,1.8,2470.303,13.32,0.044,220.5
2020-03-05T01:58:03,42.805,6.029,0.047,-0.02,-0.026,103.0,104.0,101.0,13.4,1505.3,323.9,-0.7,1.8,2470.262,13.32,0.051,113.0
2020-03-05T02:04:02,42.805,6.029,0.046,-0.014,-0.025,104.0,106.0,100.0,13.3,1505.2,324.4,-0.8,1.8,2470.317,13.3,0.048,106.9
2020-03-05T02:07:02,42.805,6.029,0.026,-0.026,-0.036,104.0,105.0,101.0,13.4,1505.3,323.3,-0.7,1.8,2470.297,13.31,0.036,135.0
2020-03-05T02:10:03,42.805,6.029,0.012,-0.019,-0.032,104.0,105.0,100.0,13.4,1505.3,324.5,-0.7,1.9,2470.307,13.32,0.022,147.7
2020-03-05T02:13:02,42.805,6.029,0.03,-0.013,-0.051,104.0,105.0,101.0,13.4,1505.3,328.0,-0.7,1.8,2470.285,13.32,0.032,113.4
2020-03-05T02:16:03,42.805,6.029,0.05,-0.016,-0.012,105.0,105.0,102.0,13.4,1505.3,325.7,-0.7,1.8,2470.313,13.32,0.052,107.7
2020-03-05T02:19:03,42.805,6.029,0.012,0.001,-0.033,104.0,105.0,100.0,13.3,1505.3,324.0,-0.7,1.8,2470.291,13.32,0.012,85.2
2020-03-05T02:22:02,42.805,6.029,0.022,-0.028,-0.013,104.0,105.0,101.0,13.4,1505.3,323.9,-0.7,1.9,2470.286,13.32,0.035,141.8
2020-03-05T02:25:03,42.805,6.029,0.012,-0.047,-0.049,104.0,106.0,101.0,13.4,1505.3,327.9,-0.7,1.8,2470.326,13.32,0.048,165.7
2020-03-05T02:28:03,42.805,6.029,0.01,-0.031,-0.068,104.0,103.0,101.0,13.4,1505.3,325.2,-0.6,1.8,2470.275,13.32,0.032,162.1
2020-03-05T02:31:03,42.805,6.029,0.038,-0.027,-0.009,104.0,105.0,102.0,13.3,1505.3,326.1,-0.7,1.8,2470.289,13.32,0.046,125.4
2020-03-05T02:34:03,42.805,6.029,0.033,-0.025,-0.004,103.0,106.0,101.0,13.4,1505.3,323.9,-0.7,1.8,2470.263,13.32,0.041,127.1
2020-03-05T02:37:02,42.805,6.029,0.018,-0.023,-0.027,104.0,104.0,101.0,13.3,1505.3,323.3,-0.7,1.8,2470.309,13.32,0.029,142.0
2020-03-05T02:40:02,42.805,6.029,0.019,-0.03,-0.054,104.0,106.0,102.0,13.4,1505.3,324.7,-0.7,1.8,2470.274,13.32,0.035,147.7
2020-03-05T02:43:03,42.805,6.029,0.014,-0.015,-0.036,103.0,106.0,103.0,13.4,1505.3,326.7,-0.7,1.9,2470.29,13.32,0.02,137.0
2020-03-05T02:46:03,42.805,6.029,0.008,-0.031,-0.019,104.0,105.0,100.0,13.4,1505.3,326.1,-0.7,1.8,2470.241,13.32,0.032,165.5
2020-03-05T02:49:02,42.805,6.029,0.021,-0.03,-0.027,105.0,105.0,101.0,13.3,1505.3,326.5,-0.7,1.8,2470.322,13.32,0.036,145.0
2020-03-05T02:52:02,42.805,6.029,0.022,-0.046,-0.048,104.0,105.0,102.0,13.4,1505.3,323.9,-0.7,1.8,2470.282,13.32,0.05,154.4
2020-03-05T02:55:03,42.805,6.029,0.028,-0.039,-0.016,104.0,105.0,102.0,13.3,1505.3,325.6,-0.7,1.8,2470.308,13.32,0.048,144.3
2020-03-05T02:58:03,42.805,6.029,0.009,-0.043,-0.018,103.0,103.0,100.0,13.4,1505.3,326.6,-0.7,1.8,2470.273,13.32,0.043,168.2
2020-03-05T03:04:02,42.805,6.029,-0.006,-0.016,-0.045,104.0,106.0,100.0,13.4,1505.2,326.5,-0.7,1.8,2470.319,13.3,0.017,200.6
2020-03-05T03:07:02,42.805,6.029,0.005,-0.033,-0.045,103.0,105.0,102.0,13.4,1505.3,323.0,-0.7,1.8,2470.345,13.31,0.033,171.4
2020-03-05T03:10:03,42.805,6.029,-0.005,-0.026,-0.06,105.0,104.0,101.0,13.4,1505.3,327.1,-0.7,1.8,2470.293,13.32,0.026,190.9
2020-03-05T03:13:03,42.805,6.029,0.019,-0.033,-0.028,106.0,105.0,102.0,13.4,1505.3,325.8,-0.7,1.9,2470.323,13.32,0.038,150.1
2020-03-05T03:16:03,42.805,6.029,-0.006,-0.036,-0.036,104.0,106.0,101.0,13.3,1505.3,326.5,-0.7,1.8,2470.3,13.32,0.036,189.5
2020-03-05T03:19:03,42.805,6.029,0.003,-0.02,-0.057,103.0,106.0,101.0,13.4,1505.3,324.9,-0.7,1.8,2470.309,13.32,0.02,171.5
2020-03-05T03:22:02,42.805,6.029,0.041,-0.021,-0.041,103.0,105.0,101.0,13.4,1505.3,323.1,-0.7,1.9,2470.325,13.32,0.046,117.1
2020-03-05T03:25:02,42.805,6.029,-0.005,-0.013,-0.021,104.0,105.0,100.0,13.4,1505.3,326.7,-0.7,1.8,2470.324,13.32,0.013,201.0
2020-03-05T03:28:03,42.805,6.029,0.0,-0.03,-0.033,103.0,105.0,103.0,13.4,1505.3,327.0,-0.7,1.8,2470.318,13.32,0.03,180.0
2020-03-05T03:31:03,42.805,6.029,-0.009,-0.017,-0.047,105.0,105.0,100.0,13.4,1505.3,323.9,-0.7,1.8,2470.302,13.32,0.019,207.9
2020-03-05T03:34:03,42.805,6.029,0.0,-0.024,-0.061,103.0,106.0,100.0,13.4,1505.3,325.1,-0.7,1.9,2470.332,13.32,0.024,180.0
2020-03-05T03:37:02,42.805,6.029,0.016,-0.027,-0.026,103.0,104.0,101.0,13.4,1505.3,324.7,-0.7,1.8,2470.301,13.32,0.031,149.3
2020-03-05T03:40:03,42.805,6.029,-0.014,-0.023,-0.054,105.0,103.0,101.0,13.4,1505.3,323.7,-0.7,1.9,2470.293,13.32,0.026,211.3
2020-03-05T03:43:03,42.805,6.029,0.0,-0.027,-0.042,105.0,105.0,101.0,13.4,1505.3,325.0,-0.7,1.8,2470.34,13.32,0.026,180.0
2020-03-05T03:46:03,42.805,6.029,0.004,-0.028,-0.045,103.0,104.0,101.0,13.4,1505.3,325.9,-0.7,1.8,2470.315,13.32,0.028,171.9
2020-03-05T03:49:03,42.805,6.029,0.008,-0.002,-0.028,105.0,105.0,101.0,13.4,1505.3,326.4,-0.7,1.8,2470.318,13.32,0.008,104.0
2020-03-05T03:52:02,42.805,6.029,0.001,0.005,-0.052,104.0,103.0,101.0,13.4,1505.3,324.5,-0.7,1.8,2470.271,13.32,0.005,11.3
2020-03-05T03:55:03,42.805,6.029,-0.026,-0.023,-0.047,103.0,105.0,102.0,13.4,1505.3,326.3,-0.7,1.8,2470.341,13.32,0.034,228.5
2020-03-05T03:58:03,42.805,6.029,0.013,-0.009,-0.03,104.0,103.0,101.0,13.4,1505.3,327.0,-0.7,1.9,2470.294,13.32,0.015,124.7
2020-03-05T04:04:02,42.805,6.029,0.012,-0.009,-0.056,103.0,105.0,101.0,13.4,1505.2,323.1,-0.8,1.8,2470.368,13.3,0.015,126.9
2020-03-05T04:07:02,42.805,6.029,-0.009,-0.04,-0.1,103.0,105.0,101.0,13.3,1505.3,323.8,-0.7,1.8,2470.321,13.31,0.041,192.7
2020-03-05T04:10:03,42.805,6.029,-0.017,-0.018,-0.052,102.0,105.0,101.0,13.4,1505.3,325.9,-0.7,1.8,2470.327,13.32,0.024,223.4
2020-03-05T04:13:03,42.805,6.029,-0.004,-0.002,-0.018,104.0,104.0,101.0,13.4,1505.3,327.0,-0.7,1.8,2470.321,13.32,0.004,243.4
2020-03-05T04:16:03,42.805,6.029,-0.011,-0.001,-0.047,103.0,105.0,102.0,13.3,1505.3,326.8,-0.7,1.8,2470.316,13.32,0.011,264.8
2020-03-05T04:19:03,42.805,6.029,0.008,-0.007,-0.045,104.0,105.0,101.0,13.4,1505.3,326.8,-0.7,1.8,2470.319,13.32,0.01,131.2
2020-03-05T04:22:02,42.805,6.029,0.011,-0.011,-0.012,103.0,105.0,104.0,13.3,1505.3,326.9,-0.7,1.8,2470.343,13.32,0.015,135.0
2020-03-05T04:25:03,42.805,6.029,-0.021,-0.013,-0.064,104.0,104.0,101.0,13.4,1505.3,323.6,-0.7,1.8,2470.338,13.33,0.024,238.2
2020-03-05T04:28:03,42.805,6.029,-0.004,0.0,-0.038,104.0,104.0,100.0,13.3,1505.3,326.2,-0.8,1.8,2470.323,13.32,0.004,270.0
2020-03-05T04:31:03,42.805,6.029,-0.025,-0.015,-0.039,104.0,105.0,101.0,13.3,1505.3,324.2,-0.7,1.8,2470.346,13.32,0.029,239.0
2020-03-05T04:34:03,42.805,6.029,-0.018,-0.02,-0.045,102.0,104.0,103.0,13.3,1505.3,324.6,-0.7,1.9,2470.318,13.32,0.026,222.0
2020-03-05T04:37:02,42.805,6.029,-0.003,-0.011,-0.065,105.0,104.0,100.0,13.3,1505.3,328.5,-0.7,1.8,2470.31,13.33,0.011,195.3
2020-03-05T04:40:03,42.805,6.029,0.007,-0.013,-0.044,104.0,105.0,101.0,13.4,1505.3,326.3,-0.7,1.8,2470.332,13.33,0.014,151.7
2020-03-05T04:43:03,42.805,6.029,-0.014,-0.003,-0.059,103.0,104.0,102.0,13.3,1505.3,325.9,-0.7,1.8,2470.357,13.33,0.014,257.9
2020-03-05T04:46:03,42.805,6.029,-0.008,-0.012,-0.056,103.0,106.0,102.0,13.3,1505.3,324.6,-0.7,1.8,2470.332,13.33,0.014,213.7
2020-03-05T04:49:03,42.805,6.029,-0.006,-0.021,-0.058,103.0,104.0,101.0,13.3,1505.3,324.0,-0.7,1.8,2470.37,13.33,0.021,195.9
2020-03-05T04:52:02,42.805,6.029,-0.016,-0.007,-0.002,104.0,104.0,101.0,13.4,1505.3,327.8,-0.7,1.8,2470.323,13.33,0.017,246.4
2020-03-05T04:55:03,42.805,6.029,-0.001,-0.007,0.002,103.0,106.0,101.0,13.4,1505.3,324.9,-0.7,1.8,2470.348,13.33,0.007,188.1
2020-03-05T04:58:02,42.805,6.029,-0.011,0.003,-0.027,104.0,105.0,101.0,13.4,1505.3,323.7,-0.7,1.8,2470.339,13.33,0.011,285.3
2020-03-05T05:04:02,42.805,6.029,-0.006,-0.028,-0.054,104.0,106.0,101.0,13.4,1505.3,325.0,-0.7,1.8,2470.381,13.31,0.028,192.1
2020-03-05T05:07:02,42.805,6.029,-0.018,-0.023,-0.057,103.0,104.0,101.0,13.4,1505.3,326.3,-0.7,1.8,2470.359,13.31,0.029,218.0
2020-03-05T05:10:03,42.805,6.029,-0.05,-0.03,-0.043,104.0,105.0,101.0,13.3,1505.3,325.6,-0.7,1.8,2470.391,13.32,0.058,239.0
2020-03-05T05:13:03,42.805,6.029,-0.02,-0.002,-0.02,104.0,107.0,102.0,13.4,1505.3,327.3,-0.7,1.8,2470.368,13.32,0.02,264.3
2020-03-05T05:16:03,42.805,6.029,-0.007,-0.019,-0.04,103.0,106.0,102.0,13.4,1505.3,324.6,-0.7,1.9,2470.368,13.33,0.02,200.2
2020-03-05T05:19:03,42.805,6.029,-0.024,0.001,-0.06,104.0,105.0,101.0,13.4,1505.3,325.0,-0.7,1.8,2470.379,13.33,0.024,272.4
2020-03-05T05:22:02,42.805,6.029,-0.007,0.003,-0.043,103.0,104.0,101.0,13.4,1505.3,324.3,-0.7,1.8,2470.317,13.33,0.007,293.2
2020-03-05T05:25:03,42.805,6.029,-0.006,0.006,-0.031,103.0,105.0,101.0,13.4,1505.3,324.7,-0.8,1.8,2470.335,13.33,0.008,315.0
2020-03-05T05:28:03,42.805,6.029,-0.008,0.004,-0.036,103.0,105.0,101.0,13.4,1505.3,328.6,-0.7,1.8,2470.308,13.33,0.008,296.6
2020-03-05T05:31:03,42.805,6.029,-0.025,-0.008,-0.07,103.0,106.0,102.0,13.4,1505.3,326.9,-0.7,1.8,2470.357,13.33,0.026,252.3
2020-03-05T05:34:03,42.805,6.029,-0.023,0.014,-0.022,103.0,104.0,101.0,13.4,1505.3,326.2,-0.7,1.9,2470.306,13.33,0.026,301.3
2020-03-05T05:37:02,42.805,6.029,-0.02,-0.003,-0.042,104.0,105.0,103.0,13.4,1505.3,325.5,-0.7,1.8,2470.34,13.33,0.02,261.5
2020-03-05T05:40:02,42.805,6.029,0.009,0.01,-0.026,104.0,105.0,102.0,13.3,1505.3,327.0,-0.7,1.8,2470.338,13.33,0.013,42.0
2020-03-05T05:43:03,42.805,6.029,-0.023,-0.005,-0.011,104.0,106.0,101.0,13.4,1505.3,324.5,-0.7,1.9,2470.323,13.33,0.023,257.7
2020-03-05T05:46:03,42.805,6.029,-0.023,-0.012,-0.064,104.0,105.0,101.0,13.3,1505.3,325.0,-0.7,1.8,2470.321,13.33,0.025,242.4
2020-03-05T05:49:03,42.805,6.029,-0.014,-0.015,-0.035,103.0,105.0,101.0,13.4,1505.3,327.6,-0.7,1.8,2470.323,13.33,0.02,223.0
2020-03-05T05:52:02,42.805,6.029,-0.015,-0.016,-0.041,104.0,105.0,101.0,13.4,1505.3,326.2,-0.7,1.8,2470.33,13.33,0.021,223.1
2020-03-05T05:55:03,42.805,6.029,-0.027,-0.002,-0.054,104.0,105.0,100.0,13.4,1505.3,325.5,-0.7,1.8,2470.274,13.33,0.027,265.8
2020-03-05T05:58:03,42.805,6.029,-0.013,-0.016,-0.023,103.0,105.0,100.0,13.4,1505.3,325.9,-0.7,1.8,2470.315,13.33,0.02,219.1
2020-03-05T06:04:02,42.805,6.029,-0.05,-0.005,-0.058,104.0,105.0,102.0,13.4,1505.3,325.5,-0.8,1.8,2470.343,13.31,0.05,264.3
2020-03-05T06:07:03,42.805,6.029,-0.024,0.013,-0.059,103.0,105.0,101.0,13.4,1505.3,327.6,-0.8,1.9,2470.367,13.31,0.027,298.4
2020-03-05T06:10:03,42.805,6.029,-0.008,0.002,-0.07,105.0,105.0,102.0,13.3,1505.3,324.6,-0.7,1.8,2470.357,13.32,0.008,284.0
2020-03-05T06:13:03,42.805,6.029,-0.011,-0.002,-0.029,103.0,105.0,101.0,13.4,1505.3,323.9,-0.7,1.9,2470.289,13.32,0.011,259.7
2020-03-05T06:16:03,42.805,6.029,-0.024,0.006,-0.04,105.0,105.0,100.0,13.4,1505.3,324.8,-0.7,1.8,2470.334,13.32,0.024,284.0
2020-03-05T06:19:03,42.805,6.029,-0.036,0.007,-0.055,104.0,105.0,101.0,13.4,1505.3,324.3,-0.7,1.8,2470.321,13.32,0.036,281.0
2020-03-05T06:22:02,42.805,6.029,-0.047,-0.017,-0.07,104.0,105.0,101.0,13.4,1505.3,328.4,-0.7,1.8,2470.322,13.33,0.049,250.1
2020-03-05T06:25:03,42.805,6.029,-0.011,0.01,-0.048,104.0,104.0,101.0,13.4,1505.3,324.8,-0.7,1.8,2470.321,13.33,0.014,312.3
2020-03-05T06:28:03,42.805,6.029,-0.049,-0.01,-0.049,103.0,105.0,101.0,13.4,1505.3,324.4,-0.7,1.8,2470.36,13.33,0.05,258.5
2020-03-05T06:31:03,42.805,6.029,-0.007,-0.005,-0.008,103.0,104.0,101.0,13.3,1505.3,327.5,-0.7,1.8,2470.338,13.33,0.008,234.5
2020-03-05T06:34:03,42.805,6.029,-0.032,0.012,-0.037,102.0,105.0,100.0,13.4,1505.3,328.3,-0.7,1.8,2470.359,13.33,0.034,290.6
2020-03-05T06:37:02,42.805,6.029,-0.041,0.006,-0.076,103.0,106.0,100.0,13.4,1505.3,325.8,-0.7,1.8,2470.327,13.33,0.041,278.3
2020-03-05T06:40:03,42.805,6.029,-0.025,0.004,-0.052,105.0,105.0,101.0,13.4,1505.3,327.0,-0.7,1.9,2470.347,13.33,0.025,279.1
2020-03-05T06:43:03,42.805,6.029,0.006,0.021,-0.025,104.0,103.0,102.0,13.4,1505.3,326.9,-0.7,1.8,2470.276,13.33,0.021,15.9
2020-03-05T06:46:03,42.805,6.029,0.003,0.0,-0.008,104.0,105.0,102.0,13.4,1505.3,325.1,-0.7,1.8,2470.334,13.33,0.003,90.0
2020-03-05T06:49:03,42.805,6.029,-0.02,-0.01,-0.092,104.0,105.0,100.0,13.4,1505.3,325.6,-0.7,1.8,2470.309,13.33,0.022,243.4
2020-03-05T06:52:02,42.805,6.029,-0.01,-0.007,-0.037,103.0,106.0,101.0,13.3,1505.3,324.3,-0.7,1.8,2470.293,13.33,0.012,235.0
2020-03-05T06:55:03,42.805,6.029,0.02,0.004,-0.042,105.0,105.0,100.0,13.3,1505.3,324.7,-0.7,1.8,2470.367,13.33,0.02,78.7
2020-03-05T06:58:03,42.805,6.029,-0.032,-0.006,-0.044,104.0,105.0,101.0,13.4,1505.3,327.9,-0.7,1.8,2470.319,13.33,0.032,259.4
2020-03-05T07:04:02,42.805,6.029,0.014,0.001,-0.008,104.0,106.0,102.0,13.3,1505.3,324.9,-0.7,1.8,2470.341,13.31,0.014,85.9
2020-03-05T07:07:02,42.805,6.029,0.005,0.01,-0.031,105.0,107.0,101.0,13.4,1505.3,325.6,-0.7,1.8,2470.304,13.32,0.011,26.6
2020-03-05T07:10:03,42.805,6.029,-0.032,0.009,-0.046,104.0,105.0,102.0,13.4,1505.3,326.9,-0.7,1.8,2470.292,13.32,0.033,285.7
2020-03-05T07:13:03,42.805,6.029,-0.006,0.008,0.0,103.0,108.0,102.0,13.4,1505.3,323.2,-0.7,1.8,2470.326,13.32,0.01,323.1
2020-03-05T07:16:03,42.805,6.029,0.0,0.008,-0.016,104.0,106.0,101.0,13.4,1505.3,325.5,-0.7,1.8,2470.316,13.33,0.008,0.0
2020-03-05T07:19:03,42.805,6.029,0.014,-0.012,-0.018,105.0,105.0,101.0,13.4,1505.3,323.8,-0.7,1.9,2470.308,13.33,0.018,130.6
2020-03-05T07:22:02,42.805,6.029,-0.025,0.006,-0.018,103.0,106.0,101.0,13.3,1505.3,324.9,-0.7,1.8,2470.312,13.33,0.025,283.5
2020-03-05T07:25:03,42.805,6.029,-0.035,-0.003,-0.056,106.0,107.0,101.0,13.4,1505.3,324.5,-0.7,1.9,2470.287,13.33,0.035,265.1
2020-03-05T07:28:03,42.805,6.029,-0.001,0.022,-0.009,103.0,107.0,101.0,13.3,1505.3,325.3,-0.7,1.8,2470.314,13.33,0.022,357.4
2020-03-05T07:31:03,42.805,6.029,0.023,-0.01,-0.049,103.0,106.0,101.0,13.3,1505.3,325.0,-0.7,1.8,2470.302,13.33,0.025,113.5
2020-03-05T07:34:03,42.805,6.029,0.002,0.0,-0.006,105.0,106.0,102.0,13.4,1505.3,326.6,-0.7,1.8,2470.307,13.33,0.002,90.0
2020-03-05T07:37:03,42.805,6.029,0.007,0.019,-0.015,104.0,107.0,102.0,13.4,1505.3,328.1,-0.7,1.8,2470.28,13.33,0.02,20.2
2020-03-05T07:40:03,42.805,6.029,-0.008,0.009,-0.014,105.0,107.0,101.0,13.4,1505.3,325.0,-0.7,1.8,2470.347,13.33,0.012,318.4
2020-03-05T07:43:03,42.805,6.029,0.001,0.001,-0.045,103.0,106.0,102.0,13.4,1505.3,327.7,-0.7,1.8,2470.301,13.33,0.001,45.0
2020-03-05T07:46:03,42.805,6.029,-0.003,0.002,-0.026,104.0,107.0,101.0,13.3,1505.3,324.6,-0.7,1.8,2470.267,13.33,0.003,303.7
2020-03-05T07:49:03,42.805,6.029,-0.004,0.001,-0.055,105.0,106.0,101.0,13.3,1505.3,323.7,-0.7,1.8,2470.266,13.33,0.004,284.0
2020-03-05T07:52:02,42.805,6.029,-0.015,-0.008,-0.027,103.0,106.0,102.0,13.4,1505.3,326.9,-0.7,1.8,2470.288,13.33,0.017,241.9
2020-03-05T07:55:03,42.805,6.029,0.002,0.003,-0.008,105.0,106.0,101.0,13.4,1505.3,326.6,-0.7,1.8,2470.28,13.33,0.003,33.7
2020-03-05T07:58:03,42.805,6.029,-0.014,-0.009,-0.033,104.0,107.0,101.0,13.3,1505.3,326.9,-0.7,1.8,2470.283,13.33,0.016,237.3
2020-03-05T08:04:02,42.805,6.029,0.001,0.002,-0.002,104.0,106.0,103.0,13.4,1505.3,326.3,-0.7,1.8,2470.325,13.31,0.002,26.6
2020-03-05T08:07:02,42.805,6.029,0.004,0.009,-0.039,105.0,107.0,100.0,13.3,1505.3,324.8,-0.7,1.8,2470.343,13.32,0.009,24.0
2020-03-05T08:10:03,42.805,6.029,-0.017,0.01,-0.066,103.0,108.0,101.0,13.3,1505.3,327.6,-0.7,1.9,2470.34,13.32,0.019,300.5
2020-03-05T08:13:03,42.805,6.029,-0.008,0.02,-0.052,104.0,105.0,102.0,13.4,1505.3,326.1,-0.7,1.8,2470.286,13.33,0.021,338.2
2020-03-05T08:16:03,42.805,6.029,-0.012,-0.007,-0.034,103.0,107.0,102.0,13.4,1505.3,324.8,-0.7,1.8,2470.323,13.33,0.013,239.7
2020-03-05T08:19:03,42.805,6.029,-0.007,0.007,-0.013,105.0,105.0,101.0,13.3,1505.3,325.4,-0.7,1.8,2470.323,13.33,0.009,315.0
2020-03-05T08:22:03,42.805,6.029,-0.001,0.0,-0.058,103.0,108.0,102.0,13.4,1505.3,327.1,-0.7,1.8,2470.309,13.33,0.001,270.0
2020-03-05T08:25:03,42.805,6.029,0.005,0.006,-0.012,104.0,108.0,101.0,13.3,1505.3,324.6,-0.7,1.8,2470.302,13.33,0.007,39.8
2020-03-05T08:28:03,42.805,6.029,-0.021,0.025,-0.061,104.0,107.0,101.0,13.4,1505.3,326.7,-0.7,1.8,2470.283,13.33,0.032,320.0
2020-03-05T08:31:03,42.805,6.029,0.024,0.006,-0.013,104.0,107.0,101.0,13.4,1505.3,325.0,-0.7,1.8,2470.291,13.33,0.024,76.0
2020-03-05T08:34:03,42.805,6.029,-0.015,0.003,-0.038,104.0,106.0,100.0,13.4,1505.3,324.8,-0.7,1.9,2470.271,13.33,0.015,281.3
2020-03-05T08:37:02,42.805,6.029,-0.003,0.016,-0.052,105.0,108.0,101.0,13.4,1505.3,323.0,-0.7,1.8,2470.283,13.33,0.016,349.4
2020-03-05T08:40:03,42.805,6.029,-0.019,-0.011,-0.056,104.0,108.0,100.0,13.4,1505.3,324.2,-0.7,1.8,2470.311,13.33,0.021,239.9
2020-03-05T08:43:03,42.805,6.029,0.014,0.02,-0.01,105.0,106.0,102.0,13.4,1505.3,324.9,-0.7,1.8,2470.278,13.33,0.024,35.0
2020-03-05T08:46:03,42.805,6.029,-0.051,0.006,-0.102,104.0,107.0,103.0,13.4,1505.3,325.7,-0.7,1.8,2470.23,13.33,0.051,276.7
2020-03-05T08:49:03,42.805,6.029,-0.047,-0.013,-0.077,103.0,106.0,101.0,13.4,1505.3,328.0,-0.7,1.8,2470.275,13.33,0.048,254.5
2020-03-05T08:52:02,42.805,6.029,0.032,0.016,-0.001,105.0,106.0,103.0,13.4,1505.3,325.1,-0.7,1.9,2470.227,13.33,0.035,63.4
2020-03-05T08:55:03,42.805,6.029,-0.03,0.005,-0.063,104.0,108.0,101.0,13.4,1505.3,324.6,-0.8,1.8,2470.256,13.33,0.03,279.5
2020-03-05T08:58:03,42.805,6.029,0.013,0.0,-0.039,104.0,106.0,101.0,13.4,1505.3,327.9,-0.8,1.8,2470.253,13.33,0.013,90.0
2020-03-05T09:04:03,42.805,6.029,-0.016,0.002,-0.023,104.0,107.0,103.0,13.4,1505.3,326.7,-0.7,1.9,2470.251,13.31,0.016,277.1
2020-03-05T09:07:03,42.805,6.029,0.0,0.005,-0.035,105.0,108.0,102.0,13.4,1505.3,324.1,-0.8,1.8,2470.271,13.32,0.005,0.0
2020-03-05T09:10:03,42.805,6.029,-0.023,0.0,-0.053,105.0,106.0,102.0,13.4,1505.3,327.5,-0.7,1.8,2470.26,13.33,0.023,270.0
2020-03-05T09:13:03,42.805,6.029,0.017,0.006,-0.006,103.0,106.0,101.0,13.4,1505.3,328.1,-0.7,1.8,2470.29,13.33,0.018,70.6
2020-03-05T09:16:03,42.805,6.029,0.005,0.017,0.003,105.0,105.0,103.0,13.4,1505.3,326.6,-0.7,1.8,2470.26,13.33,0.017,16.4
2020-03-05T09:19:03,42.805,6.029,0.022,0.017,-0.004,104.0,106.0,101.0,13.4,1505.3,327.0,-0.7,1.8,2470.263,13.33,0.027,52.3
2020-03-05T09:22:02,42.805,6.029,-0.004,0.015,-0.04,105.0,106.0,101.0,13.3,1505.3,328.2,-0.7,1.8,2470.264,13.33,0.015,345.1
2020-03-05T09:25:03,42.805,6.029,0.04,0.026,-0.006,104.0,107.0,101.0,13.4,1505.4,325.3,-0.7,1.9,2470.256,13.34,0.047,57.0
2020-03-05T09:28:03,42.805,6.029,0.024,0.03,-0.019,104.0,105.0,102.0,13.4,1505.4,326.2,-0.7,1.8,2470.267,13.34,0.038,38.7
2020-03-05T09:31:03,42.805,6.029,-0.04,0.028,-0.056,105.0,105.0,101.0,13.4,1505.4,323.3,-0.7,1.9,2470.217,13.34,0.048,305.0
2020-03-05T09:34:02,42.805,6.029,-0.009,0.012,-0.013,104.0,107.0,101.0,13.4,1505.4,324.6,-0.7,1.9,2470.292,13.34,0.015,323.1
2020-03-05T09:37:03,42.805,6.029,-0.004,0.016,-0.041,105.0,108.0,100.0,13.4,1505.4,323.4,-0.7,1.8,2470.28,13.34,0.016,346.0
2020-03-05T09:40:03,42.805,6.029,-0.019,-0.005,-0.066,104.0,108.0,101.0,13.4,1505.4,324.2,-0.7,1.8,2470.256,13.34,0.019,255.3
2020-03-05T09:43:03,42.805,6.029,-0.055,-0.016,-0.092,105.0,107.0,102.0,13.3,1505.4,322.8,-0.7,1.8,2470.258,13.34,0.057,253.8
2020-03-05T09:46:03,42.805,6.029,-0.012,-0.003,-0.037,104.0,108.0,102.0,13.4,1505.4,324.7,-0.7,1.8,2470.246,13.34,0.012,256.0
2020-03-05T09:49:03,42.805,6.029,-0.024,0.0,-0.074,104.0,108.0,103.0,13.3,1505.4,323.9,-0.7,1.8,2470.253,13.34,0.024,270.0
2020-03-05T09:52:03,42.805,6.029,-0.025,-0.009,-0.041,103.0,107.0,101.0,13.4,1505.4,324.8,-0.7,1.9,2470.298,13.34,0.026,250.2
2020-03-05T09:55:03,42.805,6.029,-0.025,0.03,-0.054,104.0,109.0,102.0,13.4,1505.4,323.7,-0.7,1.8,2470.261,13.34,0.039,320.2